Location: Ar Ranvel
(48.3000°N, 4.8833°W)
Time: 07:32:56
(UTC+00:00)

Cosmos 1850 Rocket - Visible Passes

Search period start: 28 October 2021 00:00
Search period end: 07 November 2021 00:00
Orbit: 753 x 786 km, 74.0° (Epoch: 27 October)

Date Brightness Start Highest point End Pass type
(mag) Time Alt. Az. Time Alt. Az. Time Alt. Az.
28 Oct 5.3 18:58:09 10° N 19:01:59 24° NE 19:01:59 24° NE visible
28 Oct 5.8 20:39:46 10° NNW 20:42:18 28° NW 20:42:18 28° NW visible
29 Oct 5.5 18:22:03 10° N 18:25:34 17° NE 18:26:21 17° ENE visible
29 Oct 4.9 20:03:07 10° NNW 20:06:41 43° NNW 20:06:41 43° NNW visible
29 Oct 7.1 21:46:55 10° WNW 21:46:59 10° WNW 21:46:59 10° WNW visible
30 Oct 5.9 17:46:23 10° NNE 17:48:30 12° NE 17:50:37 10° ENE visible
30 Oct 4.3 19:26:37 10° NNW 19:31:07 50° NNE 19:31:07 50° NNE visible
30 Oct 6.4 21:09:23 10° NW 21:11:26 19° WNW 21:11:26 19° WNW visible
31 Oct 4.6 18:50:12 10° N 18:55:09 36° ENE 18:55:39 35° ENE visible
31 Oct 5.6 20:32:21 10° NW 20:35:59 33° WNW 20:35:59 33° WNW visible
01 Nov 5.1 18:13:55 10° N 18:18:18 25° NE 18:20:18 20° E visible
01 Nov 4.4 19:55:33 10° NNW 20:00:38 60° W 20:00:38 60° W visible
02 Nov 5.5 17:37:49 10° N 17:41:21 17° NE 17:44:53 10° E visible
02 Nov 3.9 19:18:55 10° NNW 19:24:18 86° ENE 19:25:28 56° SSE visible
02 Nov 6.6 21:02:45 10° WNW 21:05:37 15° W 21:05:48 15° W visible
03 Nov 4.1 18:42:24 10° NNW 18:47:40 55° ENE 18:50:30 27° SE visible
03 Nov 6.1 20:25:11 10° NW 20:29:23 24° W 20:30:52 21° WSW visible
04 Nov 4.6 18:05:59 10° N 18:10:56 36° ENE 18:15:51 10° SE visible
04 Nov 5.4 19:48:09 10° NW 19:53:03 38° WSW 19:56:17 19° SSW visible
05 Nov 5.1 17:29:42 10° N 17:34:06 25° NE 17:38:29 10° ESE visible
05 Nov 4.5 19:11:20 10° NNW 19:16:38 60° WSW 19:21:51 10° S visible
06 Nov 4.0 18:34:42 10° NNW 18:40:05 87° ENE 18:45:26 10° SSE visible
06 Nov 6.8 20:18:34 10° WNW 20:21:24 15° W 20:24:14 10° SW visible
